Location: Battersea Observatory
(44.4318°N, 76.3841°W)
Time: 21:27:24
(UTC-05:00)

A-11 Canister half - All Passes

Search period start: 22 January 2022 00:00
Search period end: 01 February 2022 00:00
Orbit: 1516 x 1684 km, 47.2° (Epoch: 22 January)

Date Brightness Start Highest point End Pass type
(mag) Time Alt. Az. Time Alt. Az. Time Alt. Az.
22 Jan - 02:01:20 10° W 02:06:32 16° SW 02:11:49 10° SSW night (unlit)
22 Jan - 15:16:05 10° SSE 15:22:09 19° SE 15:28:08 10° E daylight
22 Jan - 17:16:22 10° SW 17:25:35 58° SE 17:34:36 10° ENE visible
22 Jan - 19:20:56 10° W 19:30:20 81° NNW 19:39:38 10° ENE visible
22 Jan - 21:26:23 10° WNW 21:35:43 81° NNE 21:45:03 10° E visible
22 Jan - 23:31:27 10° WNW 23:40:24 57° SW 23:49:27 10° SE visible
23 Jan - 01:38:08 10° W 01:43:45 18° SW 01:49:27 10° SSW night (unlit)
23 Jan - 14:53:39 10° SSE 14:59:21 18° SE 15:04:57 10° E daylight
23 Jan - 16:53:33 10° SW 17:02:43 56° SE 17:11:41 10° ENE daylight
23 Jan - 18:57:58 10° WSW 19:07:25 82° NNW 19:16:43 10° ENE visible
23 Jan - 21:03:27 10° WNW 21:12:48 80° NNE 21:22:06 10° E visible
23 Jan - 23:08:32 10° WNW 23:17:32 59° SW 23:26:38 10° SE visible
24 Jan - 01:14:57 10° W 01:20:57 19° SW 01:27:02 10° SSW night (unlit)
24 Jan - 14:31:19 10° SSE 14:36:33 16° SE 14:41:43 10° E daylight
24 Jan - 16:30:43 10° SW 16:39:51 53° SE 16:48:45 10° ENE daylight
24 Jan - 18:35:01 10° WSW 18:44:29 83° NNW 18:53:48 10° ENE visible
24 Jan - 20:40:30 10° WNW 20:49:52 79° N 20:59:09 10° E visible
24 Jan - 22:45:37 10° WNW 22:54:40 62° SSW 23:03:47 10° SE visible
25 Jan - 00:51:49 10° W 00:58:10 21° SW 01:04:35 10° S night (unlit)
25 Jan - 14:09:02 10° SSE 14:13:46 15° SE 14:18:25 10° E daylight
25 Jan - 16:07:54 10° SW 16:16:59 51° SE 16:25:51 10° ENE daylight
25 Jan - 18:12:03 10° WSW 18:21:33 85° NNW 18:30:52 10° ENE visible
25 Jan - 20:17:33 10° WNW 20:26:56 78° N 20:36:13 10° E visible
25 Jan - 22:22:41 10° WNW 22:31:48 65° SSW 22:40:57 10° SE visible
26 Jan - 00:28:43 10° W 00:35:22 23° SW 00:42:05 10° S night (unlit)
26 Jan - 13:46:52 10° SSE 13:50:58 13° ESE 13:55:00 10° E daylight
26 Jan - 15:45:05 10° SSW 15:54:07 48° SE 16:02:55 10° ENE daylight
26 Jan - 17:49:06 10° WSW 17:58:38 87° NNW 18:07:57 10° ENE visible
26 Jan - 19:54:36 10° W 20:04:00 77° N 20:13:17 10° E visible
26 Jan - 21:59:46 10° WNW 22:08:55 68° SSW 22:18:06 10° SE visible
27 Jan - 00:05:38 10° W 00:12:33 24° SW 00:19:32 10° S night (unlit)
27 Jan - 13:24:53 10° SE 13:28:11 12° ESE 13:31:26 10° ESE daylight
27 Jan - 15:22:18 10° SSW 15:31:16 46° SE 15:39:58 10° ENE daylight
27 Jan - 17:26:10 10° WSW 17:35:43 88° NNW 17:45:03 10° ENE visible
27 Jan - 19:31:39 10° W 19:41:03 76° N 19:50:20 10° E visible
27 Jan - 21:36:50 10° WNW 21:46:02 70° SSW 21:55:14 10° SE visible
27 Jan - 23:42:35 10° W 23:49:44 26° SW 23:56:58 10° S visible
28 Jan - 13:03:16 10° SE 13:05:23 11° ESE 13:07:30 10° ESE daylight
28 Jan - 14:59:31 10° SSW 15:08:24 43° SE 15:17:03 10° ENE daylight
28 Jan - 17:03:13 10° WSW 17:12:47 90° S 17:22:08 10° ENE daylight
28 Jan - 19:08:42 10° W 19:18:07 76° N 19:27:24 10° E visible
28 Jan - 21:13:55 10° WNW 21:23:10 73° SSW 21:32:22 10° SE visible
28 Jan - 23:19:33 10° WNW 23:26:56 28° SW 23:34:22 10° S visible
29 Jan - 14:36:45 10° SSW 14:45:33 41° SE 14:54:06 10° ENE daylight
29 Jan - 16:40:16 10° WSW 16:49:52 88° SSE 16:59:13 10° ENE daylight
29 Jan - 18:45:44 10° W 18:55:11 76° N 19:04:27 10° E visible
29 Jan - 20:51:00 10° WNW 21:00:17 76° SSW 21:09:30 10° SE visible
29 Jan - 22:56:31 10° WNW 23:04:07 30° SW 23:11:45 10° S visible
30 Jan - 14:14:00 10° SSW 14:22:42 39° SE 14:31:09 10° ENE daylight
30 Jan - 16:17:19 10° WSW 16:26:57 86° SSE 16:36:18 10° ENE daylight
30 Jan - 18:22:46 10° W 18:32:14 75° N 18:41:31 10° E visible
30 Jan - 20:28:04 10° WNW 20:37:23 78° SSW 20:46:37 10° ESE visible
30 Jan - 22:33:31 10° WNW 22:41:18 32° SW 22:49:07 10° SSE visible
31 Jan - 13:51:16 10° SSW 13:59:51 37° SE 14:08:12 10° ENE daylight
31 Jan - 15:54:23 10° WSW 16:04:02 83° SSE 16:13:24 10° ENE daylight
31 Jan - 17:59:47 10° W 18:09:18 75° N 18:18:35 10° E visible
31 Jan - 20:05:08 10° WNW 20:14:29 81° SSW 20:23:44 10° ESE visible
31 Jan - 22:10:31 10° WNW 22:18:29 34° SW 22:26:28 10° SSE visible
